Location: Sungai Dangang
(2.7500°N, 113.8333°E)
Time: 23:24:29
(UTC+00:00)

Chandra Rocket (1) - Pass Details

Date: 16 May 2021
Orbit: 355 x 10990 km, 28.4° (Epoch: 15 June)

Event Time Altitude Azimuth Distance (km) Brightness Sun altitude
Exits shadow 20:16:49 29° 163° (SSE) 1,588 4.0 -28.1°
Drops below altitude 10° 20:20:08 10° 105° (ESE) 1,884 5.2 -27.3°
Sets 20:21:51 0° 90° (E) 2,485 6.2 -26.9°
